Location: Siloam Springs
(36.1881°N, 94.5403°W)
Time: 14:08:52
(UTC-06:00)

Envisat - Visible Passes

Search period start: 28 February 2024 00:00
Search period end: 09 March 2024 00:00
Orbit: 762 x 764 km, 98.3° (Epoch: 28 February)

Date Brightness Start Highest point End Pass type
(mag) Time Alt. Az. Time Alt. Az. Time Alt. Az.
28 Feb 5.6 04:01:57 10° N 04:02:07 11° N 04:02:07 11° N visible
01 Mar 5.3 04:26:40 10° N 04:27:07 12° N 04:27:07 12° N visible
02 Mar 5.5 03:49:00 10° N 03:49:32 13° N 03:49:32 13° N visible
03 Mar 5.2 04:51:46 10° NNW 04:52:06 11° NNW 04:52:06 11° NNW visible
04 Mar 5.2 04:13:34 10° N 04:14:31 15° N 04:14:31 15° N visible
05 Mar 5.5 03:36:06 10° NNE 03:36:55 15° NNE 03:36:55 15° NNE visible
06 Mar 6.0 02:59:17 10° NE 02:59:19 10° NE 02:59:19 10° NE visible
06 Mar 5.0 04:38:26 10° NNW 04:39:30 15° NNW 04:39:30 15° NNW visible
07 Mar 5.0 04:00:32 10° N 04:01:54 19° N 04:01:54 19° N visible
08 Mar 5.5 03:23:16 10° NNE 03:24:18 16° NNE 03:24:18 16° NNE visible
08 Mar 5.1 05:03:50 10° NNW 05:04:29 12° NW 05:04:29 12° NW visible
